Theta_e
305 303 301 300 296 293 292 292 293 297 301 303 305 303 306 302 305 308 309 309 308 307 306 306 306 308 307 309 310 305 309 307 307 307 306 305 305 305 307 306 307 310 313 313 315 319 318 310 313 317 313 311 311 312
303 301 300 297 293 292 292 293 296 300 301 304 304 305 302 303 305 306 306 305 305 305 305 303 302 302 303 305 307 307 308 307 307 306 307 306 308 308 309 311 308 311 309 311 310 313 310 309 310 310 310 312 312 314
301 300 297 294 292 291 293 296 300 300 301 304 304 302 302 304 305 305 305 304 305 308 307 305 305 303 302 302 304 307 307 307 309 309 309 309 309 310 311 309 310 309 305 309 311 310 309 310 311 311 311 313 314 314
300 298 294 293 291 293 296 299 300 301 302 301 301 301 302 303 303 305 307 307 306 306 308 305 303 303 304 304 304 305 306 306 307 309 310 310 309 308 309 307 307 305 305 307 311 311 311 312 312 312 313 314 314 314
298 295 293 291 294 296 297 300 299 300 300 300 301 301 302 304 304 305 306 306 307 308 307 307 305 304 304 305 306 306 307 309 310 310 310 310 308 309 308 307 307 304 306 308 313 309 309 312 312 311 314 315 315 315
296 293 291 294 296 297 299 299 299 299 300 300 301 302 302 301 305 307 309 305 305 306 308 309 305 305 305 305 306 307 307 308 310 310 310 307 306 309 310 310 305 304 306 306 307 307 308 310 311 313 315 316 315 314
294 291 293 296 296 297 299 299 299 299 300 300 300 300 302 299 305 310 309 305 306 306 308 308 307 305 306 306 307 308 307 309 310 309 308 308 308 308 307 307 304 305 306 307 307 309 313 314 315 314 314 314 313 314
291 293 296 297 298 299 299 299 299 299 298 299 299 300 301 302 303 302 301 304 306 307 308 309 308 307 306 309 308 308 310 309 309 309 308 308 308 309 309 305 304 305 307 308 311 312 313 313 313 313 313 313 314 313
294 296 298 298 298 299 298 299 298 298 299 300 302 304 305 306 306 303 304 306 306 308 309 307 309 309 307 308 308 308 309 311 309 310 309 308 308 308 305 304 304 305 307 309 311 312 313 313 314 313 313 312 312 311
296 298 298 298 298 298 298 298 298 299 300 301 305 305 309 303 300 303 306 310 311 307 308 309 308 308 308 309 308 309 309 311 311 307 308 308 308 306 304 303 304 305 307 309 311 311 312 312 313 313 312 312 311 311
298 298 298 298 298 298 298 299 299 297 300 305 306 307 301 298 304 307 304 309 311 308 307 307 308 309 307 309 308 308 309 309 311 310 310 310 308 307 304 305 305 306 307 307 307 309 309 309 309 311 310 310 310 310
299 298 298 298 298 299 299 298 297 302 303 304 301 300 300 304 308 307 308 308 309 307 307 308 308 307 307 307 307 307 308 309 312 308 308 311 308 307 306 305 306 305 305 306 306 307 308 308 308 309 309 309 309 307
299 299 298 299 298 298 299 299 299 298 299 302 303 305 308 306 309 312 310 309 308 307 307 306 307 305 305 306 305 306 306 309 307 308 309 310 306 307 306 306 305 306 306 306 306 306 306 306 306 306 307 307 307 306
299 299 299 299 299 298 298 298 297 299 304 308 310 305 309 308 305 307 309 310 307 308 307 307 306 306 305 306 306 306 307 307 306 308 310 308 306 306 306 304 303 302 302 305 306 306 306 305 304 304 303 304 305 304
297 297 297 297 297 297 296 296 298 302 303 305 306 309 305 304 306 307 307 307 306 307 306 306 306 306 306 306 306 306 307 308 306 307 310 306 305 304 304 303 301 301 301 301 302 306 307 307 305 304 303 302 302 303
296 295 296 295 295 296 297 299 301 302 302 304 305 304 304 306 307 307 307 307 306 306 306 305 305 305 305 305 306 307 306 307 307 308 307 305 304 303 302 301 300 299 300 300 301 302 306 306 306 306 306 305 304 303
297 297 296 297 297 298 298 300 300 302 303 304 305 304 306 307 307 307 306 306 304 305 306 305 304 306 305 306 304 305 306 308 308 307 305 305 304 303 302 300 299 299 299 299 300 300 303 305 305 306 305 305 305 305
298 295 296 297 298 299 297 300 301 302 304 303 305 304 305 306 305 305 305 304 305 304 304 305 305 305 305 304 306 307 308 307 306 305 305 303 302 302 300 300 299 299 298 298 299 299 301 304 306 306 305 305 305 304
297 296 296 298 299 298 299 299 302 302 302 302 303 304 305 305 303 302 302 302 302 302 303 303 303 304 305 306 307 307 307 306 305 305 303 302 301 300 299 298 298 298 298 298 298 299 300 301 303 304 304 304 306 306
296 296 296 297 298 299 300 301 301 302 303 302 303 303 303 303 303 303 303 302 302 302 301 301 301 304 305 306 307 306 306 305 306 305 304 301 300 299 299 299 298 297 298 297 298 298 300 301 300 301 301 302 303 304
296 295 297 297 297 298 299 301 302 301 302 302 302 302 302 303 303 303 302 301 301 301 301 301 303 303 303 305 305 305 305 304 304 303 303 302 300 300 299 298 298 298 299 299 300 300 300 301 301 301 302 303 302 302
295 296 295 294 297 298 299 298 301 301 302 302 302 302 303 303 303 302 301 301 301 302 301 301 301 302 304 304 303 303 303 302 301 299 299 299 300 299 299 299 298 299 299 299 299 300 301 301 299 300 301 300 299 299
297 296 294 296 298 299 298 298 301 301 303 303 303 302 302 302 302 301 301 301 302 301 300 300 299 299 301 302 301 301 300 300 299 299 299 299 299 299 299 298 298 299 300 300 300 300 299 297 297 296 297 296 295 294
296 293 296 298 298 298 298 299 300 301 302 303 302 302 302 302 301 301 301 302 302 301 301 300 300 300 300 299 300 299 299 299 299 300 299 299 299 299 299 299 299 299 300 300 298 296 296 297 296 297 297 295 294 295
301 296 299 296 299 298 298 300 301 301 305 303 301 301 302 302 302 303 301 302 302 302 301 300 300 300 301 301 300 300 299 299 299 299 299 299 299 299 299 299 299 299 300 299 297 298 297 295 294 296 297 295 295 295
299 295 299 299 299 300 300 301 302 302 301 303 300 301 301 302 304 303 301 303 305 303 303 302 302 302 301 301 301 301 300 300 299 299 300 300 299 300 299 299 299 300 300 298 297 298 297 297 297 297 295 295 294 293
297 296 296 296 298 298 299 300 300 301 304 302 300 302 302 304 306 301 302 302 303 302 301 301 301 300 301 301 300 300 300 299 299 299 299 299 299 299 298 299 299 299 298 296 296 296 295 294 293 293 294 294 292 291
296 296 297 297 298 298 302 301 302 304 302 300 301 304 305 306 304 302 302 301 302 302 302 302 301 301 301 301 300 300 300 299 299 298 298 298 298 299 298 299 299 298 298 296 296 295 293 293 293 293 293 292 292 291
296 297 297 296 298 298 302 302 301 300 300 301 305 301 301 300 301 301 300 301 301 301 302 302 302 301 301 301 301 300 298 298 298 299 300 300 300 299 295 296 297 296 295 296 296 295 294 294 294 293 292 292 292 292
296 297 299 297 300 301 300 300 300 300 299 301 300 299 299 300 299 297 298 299 300 301 301 301 301 300 300 300 301 300 296 296 297 297 300 300 299 298 296 295 295 295 295 294 294 294 294 293 292 292 292 292 292 291
297 298 298 299 301 296 295 293 294 296 296 296 293 299 302 300 298 296 298 299 299 298 298 299 299 298 297 299 299 298 298 295 296 296 296 295 295 295 294 294 294 294 294 294 293 293 292 292 292 292 292 290 289 289
298 297 300 300 296 292 293 295 297 296 295 296 295 294 294 299 301 300 296 295 296 295 296 296 296 296 295 295 295 295 295 296 295 295 295 295 295 295 295 295 294 294 294 293 292 292 292 292 292 291 290 289 289 288
294 297 297 296 296 298 296 296 298 298 299 299 296 294 295 299 301 302 295 295 296 297 297 297 297 297 296 295 295 295 295 295 295 296 296 295 295 295 295 294 294 294 293 292 292 292 292 291 290 289 288 287 287 286
Wind_Speed
37 33 29 24 23 24 23 20 17 14 12 13 19 25 25 23 21 15 11 12 14 8 11 13 12 7 2 2 3 4 4 1 1 6 5 4 5 3 4 7 4 7 4 5 4 4 5 12 3 2 4 7 9 10
37 32 27 24 24 24 22 19 15 12 12 18 26 30 27 26 29 29 26 26 23 14 15 22 22 14 7 7 3 2 6 4 3 3 3 3 6 4 6 4 11 4 4 3 6 3 6 5 1 3 4 8 8 9
35 29 25 25 25 23 21 18 14 13 18 28 30 29 30 30 25 32 39 43 42 16 13 12 10 18 13 7 5 2 4 4 5 6 5 5 8 5 4 6 3 4 8 3 3 6 6 5 5 5 8 9 10 9
32 27 25 25 24 22 19 18 16 18 23 27 29 30 30 32 50 42 24 13 18 13 6 10 16 19 17 19 19 22 22 15 9 5 7 6 5 5 5 5 3 3 6 5 1 2 8 2 5 9 13 12 10 9
29 26 27 26 23 20 20 20 20 24 28 31 33 37 46 43 36 31 24 15 8 6 6 9 20 19 17 17 18 17 16 8 7 7 7 7 5 2 5 3 3 4 2 3 2 9 7 10 11 16 14 12 10 8
28 27 27 24 22 21 23 22 25 29 32 35 43 43 39 39 26 9 5 24 40 36 8 5 7 12 14 16 17 15 14 10 7 5 6 5 2 3 4 3 4 8 8 7 4 12 13 16 19 17 12 11 9 6
29 29 27 23 22 24 27 28 31 32 41 45 45 44 26 9 4 3 5 20 17 15 6 7 5 4 6 10 11 12 13 7 5 5 7 5 5 2 2 3 10 11 10 6 9 11 8 12 12 14 10 7 1 3
31 30 26 23 24 28 31 32 34 44 45 45 32 30 36 32 26 19 22 17 13 10 6 5 5 6 2 6 4 2 5 5 5 4 3 4 3 3 3 7 10 10 9 5 13 7 9 13 13 13 12 9 9 8
32 29 26 26 26 32 36 37 47 48 39 41 33 24 15 9 6 8 21 18 15 7 4 4 8 5 5 4 4 3 1 4 1 5 4 1 3 5 3 8 9 10 8 10 10 11 13 13 14 14 14 13 10 8
32 31 30 30 33 38 47 50 43 48 37 21 9 6 3 5 21 7 3 3 4 4 4 6 6 7 8 5 3 3 2 2 3 4 1 3 3 7 4 4 5 7 7 11 12 14 14 14 14 13 13 14 13 12
36 36 37 41 43 46 47 47 44 28 18 5 4 3 13 8 2 4 4 4 2 4 4 3 10 10 1 4 5 2 3 1 2 3 1 3 2 5 5 3 6 8 11 12 12 11 12 12 11 13 15 15 14 13
40 39 38 38 41 48 46 40 27 12 5 6 17 12 4 1 3 6 3 3 2 4 6 10 11 7 4 0 3 1 2 2 3 3 2 3 4 8 7 2 5 8 10 13 14 14 15 16 15 15 16 16 15 15
42 40 38 41 36 32 30 26 12 14 31 11 5 4 1 3 6 3 4 3 5 6 10 9 10 5 4 2 3 2 2 2 7 3 2 3 8 7 9 6 3 5 7 9 13 15 14 16 17 18 17 17 16 17
41 39 36 32 27 25 23 19 27 14 5 3 3 5 3 2 3 2 5 8 6 12 15 12 8 3 3 3 2 3 3 5 4 4 4 7 10 8 7 5 7 7 8 8 8 10 13 15 16 17 17 17 17 18
40 37 33 28 26 24 23 27 9 7 5 4 3 4 4 4 6 7 8 11 14 13 13 9 5 4 4 4 2 3 5 4 5 4 7 10 12 10 8 5 7 7 6 6 6 8 7 10 13 15 18 19 18 16
40 36 27 28 29 28 23 13 9 5 4 3 5 5 7 9 8 9 12 13 11 11 7 4 4 3 2 4 4 5 7 4 4 7 10 12 12 9 9 7 6 6 6 6 7 6 7 7 6 7 8 11 13 16
25 14 28 27 27 20 11 6 5 5 4 4 4 5 4 10 10 10 11 11 14 7 4 3 4 3 4 3 3 2 2 5 9 11 11 12 11 11 9 6 5 5 5 5 6 5 5 4 4 7 10 11 10 9
23 31 27 25 23 19 8 9 6 4 6 5 5 3 5 7 11 11 9 9 5 4 2 3 4 3 4 4 4 5 6 8 10 10 10 15 14 10 6 6 3 3 3 3 4 4 4 5 5 7 7 8 6 10
25 25 22 19 12 8 6 6 5 4 5 5 5 7 8 8 12 14 11 10 10 8 5 3 3 2 3 2 8 9 9 10 10 10 14 14 12 9 7 4 2 1 4 3 4 5 5 4 6 7 9 10 10 11
27 21 17 13 9 6 5 3 2 4 4 3 6 8 7 7 8 8 6 5 5 3 3 2 3 4 5 5 7 9 10 15 9 9 8 11 10 8 5 3 1 2 1 2 2 2 4 5 7 7 8 9 10 10
24 20 18 18 8 10 5 3 4 3 5 3 8 7 6 6 7 7 5 4 3 2 3 4 6 5 9 9 14 15 14 14 10 9 7 6 8 6 4 3 2 1 0 2 2 3 1 5 6 7 8 9 10 9
14 18 10 10 7 5 4 7 4 4 3 6 5 5 7 6 6 4 4 2 3 3 4 7 7 10 10 11 13 14 13 11 10 9 7 7 6 5 4 4 5 3 1 1 2 2 4 6 7 8 8 9 10 10
18 12 8 8 5 5 3 3 3 2 4 6 7 5 3 3 3 3 2 3 3 6 9 12 12 11 13 13 12 12 11 10 8 6 7 5 4 3 3 4 3 1 1 2 0 2 3 5 5 7 7 9 11 14
11 7 4 4 4 4 2 2 2 4 5 5 4 4 5 3 4 3 3 4 5 13 12 14 13 11 10 10 11 11 11 10 7 7 7 6 5 5 5 4 3 3 3 1 1 2 2 2 5 8 8 13 16 14
5 4 3 4 2 4 4 3 2 3 3 3 4 3 4 3 4 4 3 5 9 9 14 16 13 12 7 9 11 11 13 13 12 10 9 9 7 6 6 6 5 6 4 4 4 5 6 6 7 8 10 14 15 13
4 1 1 3 4 4 6 5 4 5 5 3 3 5 3 4 4 4 4 8 11 11 13 16 11 9 9 9 10 12 14 14 13 11 10 11 11 10 9 8 7 8 8 8 7 9 9 8 10 9 14 15 12 15
4 3 3 2 4 5 4 3 8 4 4 5 6 5 4 5 6 3 3 11 12 20 23 22 20 16 11 12 10 9 12 14 14 12 10 11 11 10 10 9 9 8 6 7 10 12 13 13 16 17 17 15 15 13
2 5 7 7 3 2 4 4 4 5 4 5 7 6 8 7 4 3 4 13 13 16 20 20 18 14 12 12 15 13 12 12 12 11 8 7 8 9 11 12 10 12 9 10 12 13 16 18 18 18 16 16 18 18
3 5 6 3 2 3 3 4 5 3 6 7 5 4 5 3 2 4 5 12 13 16 18 17 16 15 15 16 18 19 21 24 21 15 10 8 10 12 16 14 14 16 16 16 17 17 17 16 17 16 17 17 19 20
5 7 4 3 3 3 2 1 3 4 3 4 2 2 2 2 4 5 9 12 14 15 17 20 20 23 22 21 22 20 25 27 25 22 17 16 18 14 14 15 16 15 14 15 16 14 17 17 16 16 16 18 19 20
8 3 3 2 2 2 3 2 2 3 3 2 5 2 2 2 3 4 6 9 11 14 17 18 19 23 25 21 24 22 18 27 26 24 20 15 15 15 14 14 13 13 13 15 17 17 16 15 14 16 17 19 21 20
3 2 3 3 3 1 0 2 1 2 2 2 1 2 0 1 1 5 9 14 14 15 16 18 20 25 29 27 24 24 12 17 22 21 21 22 20 19 17 17 18 17 17 17 17 16 16 15 15 16 18 19 21 23
3 2 3 4 3 3 2 2 2 2 1 1 1 1 0 2 4 3 6 17 21 26 25 23 21 21 23 25 25 21 21 17 14 16 18 19 19 19 21 22 22 21 19 18 16 15 14 14 16 17 19 21 22 23
Wind_Direction
181 180 185 190 190 189 188 187 188 201 202 200 184 170 162 155 135 127 100 108 119 97 62 60 46 67 114 333 111 121 177 134 97 66 75 70 62 75 74 45 16 32 323 34 328 90 97 12 198 346 26 345 329 343
180 182 185 187 183 186 184 180 183 191 184 176 165 159 153 144 128 112 95 100 108 83 109 83 65 46 39 8 77 101 91 75 47 112 136 122 95 49 49 64 26 45 12 354 13 43 1 1 13 338 282 334 336 333
179 181 182 181 180 183 177 171 173 170 154 152 154 151 150 142 137 127 115 113 100 104 77 55 30 35 44 38 15 109 83 78 67 45 81 81 81 6 39 36 83 60 19 7 323 356 337 320 298 256 327 330 324 324
178 178 178 176 178 178 166 163 163 159 155 153 148 150 147 134 122 118 119 111 107 105 89 67 61 56 55 65 70 85 103 96 112 94 76 69 88 22 49 81 44 349 319 326 260 347 313 194 9 347 333 321 319 323
175 174 173 174 174 169 160 158 158 148 147 148 147 140 138 136 126 100 83 91 100 109 118 120 76 50 60 69 76 89 96 113 92 85 86 74 75 49 93 112 52 344 340 346 359 345 323 303 336 325 314 318 319 315
172 171 170 171 170 162 156 156 154 151 148 145 141 144 135 127 120 114 82 74 97 109 114 97 101 60 66 78 80 80 83 74 74 74 92 76 63 335 49 53 341 339 331 244 276 319 298 287 289 298 316 308 307 317
171 168 167 169 166 159 154 153 150 148 146 143 140 139 135 131 121 67 106 146 117 103 101 114 116 90 81 92 84 86 78 68 71 79 50 80 59 25 71 29 321 339 340 323 290 289 331 350 340 330 328 332 22 69
168 163 165 165 161 157 156 157 152 149 142 138 132 118 102 93 89 80 94 104 98 94 83 98 103 143 277 135 106 3 99 92 20 91 113 60 58 44 55 329 338 349 352 342 325 344 345 357 354 5 7 55 63 64
162 159 160 158 154 157 158 154 146 140 135 129 117 103 94 71 73 112 99 86 66 70 103 116 145 135 167 99 121 121 77 76 29 78 74 76 30 45 325 324 336 344 350 330 7 14 12 15 12 13 17 24 44 51
155 154 152 151 152 153 149 146 143 140 131 116 90 66 52 75 124 86 61 59 40 49 29 84 104 124 163 157 93 128 55 86 126 68 170 63 80 84 29 341 340 329 354 17 29 21 15 12 5 18 17 17 23 23
149 147 146 145 145 147 148 147 142 133 129 85 74 78 121 122 112 49 58 62 95 86 82 116 128 132 50 134 116 26 107 133 156 99 263 117 118 93 105 346 30 18 23 43 42 53 42 30 18 8 19 18 20 18
148 147 150 149 150 148 148 147 140 133 115 125 119 117 124 99 61 75 48 110 95 112 134 139 136 118 100 354 104 91 93 199 103 164 113 109 132 107 100 125 42 40 38 34 37 42 43 43 34 32 23 24 24 22
149 149 146 148 148 148 153 155 135 123 118 107 80 71 170 329 57 132 147 121 130 140 142 139 135 131 141 94 91 132 97 100 147 141 113 135 131 122 125 143 104 65 59 52 43 34 44 51 47 40 38 32 31 32
150 150 152 152 151 149 146 145 143 116 84 70 87 65 69 60 80 60 86 110 110 133 143 137 126 105 124 112 147 127 104 163 170 162 173 150 145 135 124 112 92 71 54 54 62 53 38 47 52 50 45 40 40 37
142 145 146 149 151 151 148 142 143 66 59 68 53 73 74 92 93 92 104 119 127 128 131 121 98 96 102 117 154 130 172 199 194 172 157 144 142 145 137 122 83 56 39 42 34 41 60 43 51 55 54 50 47 42
135 134 130 141 146 143 143 120 70 66 62 58 59 82 122 108 116 124 122 120 134 143 132 97 105 120 124 142 161 194 171 174 162 131 141 142 146 142 133 117 77 46 27 31 39 35 45 47 41 33 38 37 42 43
129 130 134 139 143 142 130 82 59 47 55 50 62 93 122 124 128 125 134 134 140 155 100 109 110 88 121 147 160 158 120 113 126 133 140 144 148 142 132 105 79 48 41 33 24 33 27 20 23 33 37 37 41 38
126 134 135 132 128 108 63 44 71 73 69 54 87 92 114 115 126 125 123 146 153 117 119 81 132 149 153 157 141 135 126 125 130 137 139 143 141 139 136 122 106 59 30 18 11 10 26 21 30 34 27 14 22 36
128 132 139 141 124 88 71 44 39 83 67 93 98 103 110 114 121 124 113 97 97 107 124 100 91 130 119 94 125 138 143 140 139 137 137 142 145 145 141 121 87 15 341 331 2 7 14 37 31 21 22 16 10 28
122 113 111 106 93 78 72 59 60 89 91 114 132 127 116 117 125 123 118 121 108 84 79 75 83 91 111 118 129 141 142 142 141 141 146 152 153 158 163 185 23 3 7 119 156 7 15 47 30 20 20 14 6 6
106 100 101 94 63 62 75 76 66 79 115 111 142 126 125 137 128 121 109 126 94 89 105 112 106 89 99 113 130 129 128 145 153 156 155 157 164 181 163 176 182 150 103 80 38 95 351 34 22 15 15 15 4 4
103 101 75 52 75 66 71 23 91 95 67 132 126 128 121 127 132 107 138 112 100 109 122 124 119 125 127 127 131 136 139 123 97 98 97 116 156 181 188 187 171 172 146 85 65 42 17 26 13 4 1 353 353 347
106 81 55 42 73 55 72 310 92 78 118 146 131 111 128 133 100 165 136 168 113 135 135 125 125 125 127 135 136 133 149 150 155 163 156 179 168 151 172 166 179 200 216 155 55 31 8 352 352 354 355 350 346 342
71 55 46 53 65 94 86 77 123 104 129 140 121 118 131 124 159 186 178 176 167 156 149 149 151 141 144 158 172 173 177 184 183 172 179 183 184 187 200 204 203 220 233 142 269 307 305 335 358 352 338 338 343 345
77 29 51 73 107 118 116 107 98 88 116 117 102 129 142 159 174 190 206 188 175 179 174 170 177 175 180 180 187 190 187 192 197 200 195 198 196 185 179 201 229 239 232 239 247 250 268 292 305 310 323 327 327 329
81 155 129 140 168 138 156 136 151 151 116 98 111 120 160 174 168 220 205 186 183 181 181 179 181 181 195 195 183 186 184 186 188 193 190 188 196 191 196 207 228 240 236 242 250 259 274 285 295 298 306 317 311 318
135 164 174 230 138 127 100 88 137 117 137 149 154 159 162 182 217 224 167 180 182 185 183 184 184 188 192 191 196 181 173 178 183 183 178 183 191 200 209 220 231 242 243 237 242 255 272 281 289 301 306 305 309 309
131 158 152 162 121 150 127 124 154 175 161 161 152 180 181 192 207 154 168 171 175 172 175 179 182 187 178 167 167 160 156 160 158 156 153 172 197 214 222 226 230 238 229 242 263 273 275 283 290 297 299 302 308 318
134 151 125 119 147 177 190 165 186 168 153 167 165 167 184 184 111 135 138 154 159 163 169 169 175 175 164 159 163 171 174 174 172 180 188 194 198 220 222 223 225 239 247 255 265 270 273 274 282 285 291 295 302 305
156 167 118 148 179 165 145 155 112 120 193 162 106 118 124 122 125 133 144 155 164 174 178 178 174 175 173 166 166 175 187 190 191 190 183 198 209 210 212 215 221 231 239 252 260 260 269 272 273 278 285 291 296 298
146 146 110 124 109 62 57 56 73 116 52 58 13 65 94 84 127 170 174 164 165 169 177 182 187 196 192 187 187 179 195 200 203 209 214 216 211 210 212 216 224 235 250 262 263 261 261 268 277 285 289 290 294 292
138 146 141 120 110 95 111 64 89 76 22 49 47 36 48 85 96 179 195 180 170 169 187 200 204 206 209 209 211 202 210 215 214 219 222 229 234 237 238 238 241 242 251 255 256 260 266 271 277 281 285 291 298 301
106 89 89 109 121 152 151 120 86 93 74 163 332 199 280 138 189 241 207 203 199 192 195 203 213 223 227 228 229 229 228 232 230 230 236 241 247 248 247 248 247 246 248 249 252 257 258 263 271 282 293 297 299 299